Regional Weather Roundup
Issued by NWS Sioux Falls, SD

Home | Current Version | Previous Version | Text Only | Print | Product List | Glossary Off
Versions: 1 2 3 4 5 6 7 8 9 10 11 12 13 14 15 16 17 18 19 20 21 22 23 24 25 26 27 28 29 30 31 32 33 34 35 36 37 38 39 40 41 42 43 44 45 46 47 48 49 50

000
ASUS43 KFSD 131510
RWRFSD

WEATHER ROUNDUP FOR SE SOUTH DAKOTA/SW MINNESOTA/NW IOWA
NATIONAL WEATHER SERVICE SIOUX FALLS SD
900 AM CST SAT FEB 13 2016

NOTE: "FAIR" INDICATES FEW OR NO CLOUDS BELOW 12,000 FEET WITH NO
SIGNIFICANT WEATHER AND OR OBSTRUCTIONS TO VISIBILITY.


SDZ038>040-050-052>070-131600-
SOUTHEAST SOUTH DAKOTA

CITY           SKY/WX    TMP DP  RH WIND       PRES   REMARKS
BROOKINGS      CLOUDY     1  -8  66 SE15      30.47F WCI -18
CHAMBERLAIN    CLOUDY    15  11  82 SE16G24   30.32F WCI  -1
HURON          CLOUDY     8  -1  66 SE18G25   30.43F WCI -11
MADISON        CLOUDY     1  -4  78 SE16      30.46F WCI -18
MITCHELL       CLOUDY     8   0  69 SE18      30.46F WCI -11
SIOUX FALLS    CLOUDY     2  -7  66 SE13      30.51F WCI -15
WINNER         CLOUDY    21  13  71 S20G29    30.25F WCI   6
YANKTON        CLOUDY     9   0  66 SE13      30.51F WCI  -7
$$

MNZ071-072-080-081-089-090-097-098-131600-
SOUTHWEST MINNESOTA

CITY           SKY/WX    TMP DP  RH WIND       PRES   REMARKS
FAIRMONT       CLOUDY    -2  -9  71 CALM      30.59R
JACKSON        CLOUDY     0  -8  71 SE5       30.56F WCI -10
LUVERNE        CLOUDY     3  -6  66 SE9       30.55F WCI -11
MARSHALL       CLOUDY     0  -7  72 S10       30.56F WCI -16
MONTEVIDEO     CLOUDY    -2  -8  78 S7        30.60S WCI -16
PIPESTONE      CLOUDY     1 -11  55 S9        30.49F WCI -14
REDWOOD FALLS  CLOUDY    -2  -9  72 SE8       30.60F WCI -17
TRACY          CLOUDY     0  -6  76 S7        30.56F WCI -13
WINDOM         CLOUDY    -2  -8  78 SE7       30.55F WCI -16
WORTHINGTON    CLOUDY    -2 -11  65 SE8       30.55R WCI -17
$$

IAZ001>003-012>014-020>022-031-032-NEZ013-014-SDZ071-131600-
NORTHWEST IOWA

CITY           SKY/WX    TMP DP  RH WIND       PRES   REMARKS
CHEROKEE       CLOUDY     3  -4  72 SE7       30.59S WCI  -9
DENISON        CLOUDY     5  -2  72 SE8       30.56F WCI  -8
ESTHERVILLE    CLOUDY    -2  -8  76 E3        30.59R
LE MARS        CLOUDY     5  -2  72 SE8       30.59R WCI  -8
ORANGE CITY    CLOUDY     3  -2  78 SE5       30.55R WCI  -6
SHELDON        CLOUDY     0  -6  78 SE9       30.55R WCI -16
SIOUX CITY     CLOUDY     7  -2  66 SE14      30.57F WCI -10
SPENCER        CLOUDY    -1  -9  68 SE7       30.58F WCI -14
STORM LAKE     CLOUDY     0  -6  78 E9        30.57S WCI -16
$$

ABBREVIATIONS USED IN REMARKS
   TC - TEMPERATURE IN CELSIUS
  WCI - WIND CHILL INDEX
   HX - HEAT INDEX
  VSB - VISIBILITY




USA.gov is the U.S. government's official web portal to all federal, state and local government web resources and services.